Regional Weather Roundup
Issued by NWS Charleston, SC

Current Version | Previous Version | Text Only | Print | Product List | Glossary Off
Versions: 1 2 3 4 5 6 7 8 9 10 11 12 13 14 15 16 17 18 19 20 21 22 23 24 25 26 27 28 29 30 31 32 33 34 35 36 37 38 39 40 41 42 43 44 45 46 47 48 49 50

610
ASUS42 KCHS 290313
RWRCHS

REGIONAL WEATHER ROUNDUP
NATIONAL WEATHER SERVICE CHARLESTON SC
1100 PM EDT THU JUL 28 2016

NOTE: "FAIR" INDICATES FEW OR NO CLOUDS BELOW 12,000 FEET WITH NO
SIGNIFICANT WEATHER AND/OR OBSTRUCTIONS TO VISIBILITY.

NOT ALL STATIONS ARE QUALITY CONTROLLED. USE DATA WITH CAUTION...
ESPECIALLY DEWPOINT OBSERVATIONS.

SCZ027-030-031-034>040-042>050-290400-
...SOUTHEAST SOUTH CAROLINA...

CITY           SKY/WX    TMP DP  RH WIND       PRES   REMARKS
N CHARLESTON   CLEAR     85  77  77 SW10      29.96S HX  95
WATERFRONT PRK   N/A     86  80  82 SW8       29.95R HX 101
MOUNT PLEASANT FAIR      84  79  84 SW9       29.97S HX  96
JOHNS ISLAND   FAIR      86  81  84 S9        29.97S HX 102
PINOPOLIS        N/A     84  77  79 S6        29.88R HX  94
MONCKS CORNER  FAIR      81  73  78 SW7       29.96S
SUMMERVILLE    NOT AVBL
BEAUFORT MCAS  CLEAR     85  79  82 S6        29.98R HX  98
BEAUFORT ARPT  FAIR      86  79  79 SW6       29.97S HX  99
HILTON HEAD IS PTCLDY    88  81  79 SW12G17   29.99S HX 105
WALTERBORO     CLEAR     84  81  89 S5        29.97S HX  98
ALLENDALE      FAIR      82  70  65 CALM      29.96S

...SOUTHERN MIDLANDS AND PEE DEE...

CITY           SKY/WX    TMP DP  RH WIND       PRES   REMARKS
GEORGETOWN     FAIR      81  77  89 SW8       29.97R
KINGSTREE      FAIR      82  73  74 CALM      29.94S
ORANGEBURG     CLEAR     83  68  60 SW5       29.96R
BARNWELL       NOT AVBL
AIKEN          FAIR      81  66  61 SW3       30.00F
MANNING        FAIR      84  75  74 SW7       29.95S HX  92
COLUMBIA       PTCLDY    87  68  52 SW6       29.94R HX  90
SUMTER         CLEAR     84  68  58 SW7       29.91S
FLORENCE       CLEAR     85  69  58 SW8       29.92S
MYRTLE BEACH   CLEAR     84  70  61 SW9G16    29.96R
N MYRTLE BEACH CLEAR     84  78  82 SW14      29.93S HX  95

$$

GAZ063-065-086>088-099>101-113>116-118-119-134>141-150-290400-
...SOUTHEAST GEORGIA...

CITY           SKY/WX    TMP DP  RH WIND       PRES   REMARKS
SAVANNAH ARPT  CLOUDY    85  76  74 S9        29.99R HX  94
HUNTER AAF     NOT AVBL
FORT STEWART   NOT AVBL
STATESBORO     CLEAR     79  74  84 CALM      29.98R
SYLVANIA       NOT AVBL
CLAXTON        FAIR      79  72  77 CALM      29.99R

...CSRA...CENTRAL AND FAR SOUTHEAST GEORGIA...

CITY           SKY/WX    TMP DP  RH WIND       PRES   REMARKS
THOMSON        NOT AVBL
AUGUSTA-BUSH   CLEAR     84  66  54 SW5       29.95S
AUGUSTA-DANIEL CLEAR     88  66  48 CALM      29.97S HX  90
SWAINSBORO     FAIR      84  64  51 W5        30.00R
VIDALIA        CLEAR     82  64  54 SW3       30.00S
EASTMAN        FAIR      84  57  39 CALM      30.03R
HAZLEHURST     FAIR      85  71  61 CALM      29.99S HX  90
ALMA           CLEAR     81  71  71 SW5       30.01R
WAYCROSS       CLEAR     87  76  68 W7        30.02R HX  97
JESUP          FAIR      79  73  83 CALM      30.01R
BAXLEY         FAIR      82  73  74 CALM      30.00S
BRUNSWICK      CLOUDY    86  77  74 S9        30.02R HX  97
SAINT SIMONS   CLOUDY    85  74  69 SW6       30.01R HX  92

$$

SCZ027-028-034-036>038-045-046-048>050-GAZ119-141-290400-
...LAKE AND SUPPLEMENTAL COASTAL OBSERVATIONS...

STATION/POSITION TIME  TEMP    WIND        PRES    WAVE   SWELL
                       AIR SEA DIR/SP/G            HT/PER HT/PER/DIR
                 (UTC) (F)     (DEG/KT/KT) (MB)    (FT/S) (FT/S/D)
WINYAH BAY       NOT AVBL
LAKE MURRAY      0200   89     250/  7/  9 1013.2R
ACE BASIN NERRS  NOT AVBL
FORT PULASKI     0200                      1015.5
SAPELO ISLAND    0200   86     190/ 10     1015.0S

$$

ANZ835-935-AMZ111-154-330-350-352-354-370-450-454-472-290400-
...C-MAN AND BUOY OBSERVATIONS...

STATION/POSITION TIME  TEMP    WIND        PRES    WAVE   SWELL
                       AIR SEA DIR/SP/G            HT/PER HT/PER/DIR
                 (UTC) (F)     (DEG/KT/KT) (MB)    (FT/S) (FT/S/D)
BUOY 41004       0250   87 86  210/ 17/ 19 1014.2R   4/ 4   2/150/ 8
BUOY 41008       0250   86 87  180/ 17/ 19 1015.5R   3/ 5
FOLLY BEACH CMAN 0200   86     210/ 19/ 21 1014.9R
CAPERS NEARSHORE 0208   85 85  220/ 16/ 21 1014.6R
FRIPP NEARSHORE  0208   87 87  210/ 17/ 23 1014.2R


STATION/POSITION TIME  TEMP    WIND        PRES    WAVE   SWELL
                       AIR SEA DIR/SP/G            HT/PER HT/PER/DIR
                 (UTC) (F)     (DEG/KT/KT) (MB)    (FT/S) (FT/S/D)
5E ST. MARYS GA  0301      86                N/A     2/ 4
FRYING PAN BUOY  0200   86 85  230/ 17/ 21 1013.5R
BUOY 41025       0250   86 85  240/ 19/ 23 1012.5R   4/ 4   2/190/ 7
CAPE LOOKOUT NC  0200   84     230/ 10/ 15 1012.5R
BUOY 41002       0250   84 85  250/ 10/ 12 1015.7F   3/ 6   3/250/ 6
BUOY 41010       0220   85 87  220/  6/ 10 1017.7R
ST AUGUSTINE FL  0300   83 87  230/  4/  6 1017.9S


$$




USA.gov is the U.S. government's official web portal to all federal, state and local government web resources and services.